Weather Roundup
Issued by NWS Chicago, IL

Home | Current Version | Previous Version | Text Only | Print | Product List | Glossary Off
Versions: 1 2 3 4 5 6 7 8 9 10 11 12 13 14 15 16 17 18 19 20 21 22 23 24 25 26 27 28 29 30 31 32 33 34 35 36 37 38 39 40 41 42 43 44 45 46 47 48 49 50

000
NZUS59 KLOT 231406
HRRLOT

CHICAGO AREA WEATHER ROUNDUP
NATIONAL WEATHER SERVICE CHICAGO/ROMEOVILLE IL
900 AM CDT WED APR 23 2014

NOTE: "FAIR" INDICATES FEW OR NO CLOUDS BELOW 12,000 FEET WITH NO
SIGNIFICANT WEATHER AND/OR OBSTRUCTIONS TO VISIBILITY.

* THESE STATIONS ARE NOT UNDER NWS QUALITY CONTROL. THEY ALSO MAY NOT
  REPORT WEATHER SUCH AS PRECIPITATION OR FOG.

ILZ005-006-012>014-019>023-231500-
NORTHEAST ILLINOIS

CITY           SKY/WX    TMP DP  RH WIND       PRES   REMARKS
OHARE          MOSUNNY   42  25  50 NE15      30.18R
MIDWAY         MOSUNNY   42  28  57 NE13      30.18R
AURORA         SUNNY     42  28  57 NE8       30.18R
LANSING*       MOSUNNY   41  29  61 NE14      30.18R
JOLIET*        SUNNY     42  28  57 NE9       30.19R
WAUKEGAN       SUNNY     39  26  59 N9        30.18R
DUPAGE AIRPORT SUNNY     41  28  60 NE14G21   30.17R
WHEELING       SUNNY     41  27  57 NE10      30.20R
KANKAKEE*      SUNNY     42  31  64 NE14      30.18R
MORRIS*        SUNNY     43  28  54 NE8       30.18S
LEWIS AIRPORT* SUNNY     42  27  55 NE14      30.17S
NORTHERLY IS     N/A     39  30  70 MISG        N/A
$$

WIZ051-052-058>065-066-070>072-231500-
SOUTHEAST WISCONSIN

CITY           SKY/WX    TMP DP  RH WIND       PRES   REMARKS
MILWAUKEE      MOSUNNY   41  27  57 N10       30.19R
KENOSHA*       SUNNY     42  28  57 NE8       30.18R
RACINE*        SUNNY     41  29  62 NE10      30.20R
BURLINGTON     SUNNY     39  29  66 NE6       30.18R
WAUKESHA       SUNNY     39  27  60 NE9       30.18S
WEST BEND      SUNNY     37  27  65 NE5       30.17S
$$

INZ001>003-010>013-019-020-231500-
NORTHWEST INDIANA

CITY           SKY/WX    TMP DP  RH WIND       PRES   REMARKS
GARY*          MOSUNNY   41  30  65 NE14      30.18S
MICHIGAN CITY* NOT AVBL
RENSSELAER*    NOT AVBL
VALPARAISO     SUNNY     41  28  60 N9        30.16S
$$

LMZ740>746-231500-
SOUTHERN LAKE MICHIGAN

STATION/POSITION TIME  SKY/WX   TEMP WIND        PRES    VSBY
                                AIR  DIR/SP/G
                 (UTC)          (F)  (DEG/KT/KT) (MB)    (MI)
HARRISON CRIB    1400            36   20/ 12/ 15   N/A
BURNHAM HARBOR   1400            40   10/ 10/ 15   N/A
CALUMET HARBOR   1400            38  360/ 10/ 13 1022.8S
BURNS HARBOR     NOT AVBL
MICHIGAN CITY    1400            37   10/ 14/ 17   N/A
$$

ABBREVIATIONS USED IN REMARKS
   TC - TEMPERATURE IN CELSIUS
  WCI - WIND CHILL INDEX
   HX - HEAT INDEX
  VSB - VISIBILITY
$$



USA.gov is the U.S. government's official web portal to all federal, state and local government web resources and services.